Location: Winthrop
(48.4780°N, 120.1850°W)
Time: 08:25:36
(UTC-08:00)

Altair - Visible Passes

Search period start: 29 January 2023 00:00
Search period end: 08 February 2023 00:00
Orbit: 1501 x 1683 km, 47.2° (Epoch: 28 January)

Date Brightness Start Highest point End Pass type
(mag) Time Alt. Az. Time Alt. Az. Time Alt. Az.
29 Jan 9.1 03:36:49 18° SSE 03:36:49 18° SSE 03:39:03 10° SSE visible
29 Jan 8.6 18:41:47 10° S 18:48:35 22° SE 18:50:29 21° ESE visible
29 Jan 8.2 20:42:17 10° SW 20:48:32 42° SSW 20:48:32 42° SSW visible
29 Jan 9.6 22:46:13 10° W 22:46:35 11° W 22:46:35 11° W visible
30 Jan 9.5 03:13:36 12° SSE 03:13:36 12° SSE 03:14:07 10° SSE visible
30 Jan 8.7 18:17:12 10° S 18:23:33 20° SE 18:27:08 16° ESE visible
30 Jan 7.8 20:17:14 10° SW 20:25:11 50° S 20:25:11 50° S visible
30 Jan 9.2 22:21:02 10° WSW 22:23:15 19° WSW 22:23:15 19° WSW visible
31 Jan 8.8 17:52:42 10° SSE 17:58:32 18° SE 18:03:45 12° E visible
31 Jan 7.7 19:52:12 10° SW 20:01:26 50° SSE 20:01:48 50° SE visible
31 Jan 8.8 21:55:50 10° WSW 21:59:51 29° WSW 21:59:51 29° WSW visible
01 Feb 9.0 17:28:17 10° SSE 17:33:31 16° SE 17:38:49 10° E visible
01 Feb 7.8 19:27:12 10° SW 19:36:18 48° SE 19:38:21 43° ESE visible
01 Feb 8.3 21:30:40 10° WSW 21:36:24 42° WSW 21:36:24 42° WSW visible
02 Feb 7.9 19:02:13 10° SSW 19:11:10 45° SE 19:14:50 33° E visible
02 Feb 7.8 21:05:29 10° WSW 21:12:53 57° WSW 21:12:53 57° WSW visible
02 Feb 9.6 23:10:09 10° W 23:10:56 13° W 23:10:56 13° W visible
03 Feb 8.0 18:37:16 10° SSW 18:46:03 42° SE 18:51:18 25° E visible
03 Feb 7.5 20:40:20 10° WSW 20:49:20 73° SSW 20:49:20 73° SSW visible
03 Feb 9.2 22:44:57 10° W 22:47:22 20° W 22:47:22 20° W visible
04 Feb 8.1 18:12:21 10° SSW 18:20:57 39° SE 18:27:42 18° E visible
04 Feb 7.4 20:15:11 10° WSW 20:24:52 75° SSE 20:25:44 71° SE visible
04 Feb 8.8 22:19:45 10° W 22:23:46 29° W 22:23:46 29° W visible
05 Feb 8.2 17:47:26 10° SSW 17:55:51 37° SE 18:04:04 12° ENE visible
05 Feb 7.5 19:50:03 10° WSW 19:59:41 73° SSE 20:02:06 55° E visible
05 Feb 8.4 21:54:33 10° W 22:00:08 40° W 22:00:08 40° W visible
06 Feb 7.5 19:24:55 10° WSW 19:34:29 70° SSE 19:38:25 41° E visible
06 Feb 8.0 21:29:21 10° W 21:36:27 55° W 21:36:27 55° W visible
06 Feb 9.7 23:34:04 10° WNW 23:34:29 11° WNW 23:34:29 11° WNW visible
07 Feb 7.6 18:59:48 10° WSW 19:09:18 68° SSE 19:14:43 31° E visible
07 Feb 7.6 21:04:09 10° W 21:12:45 72° WSW 21:12:45 72° WSW visible
07 Feb 9.4 23:08:52 10° WNW 23:10:46 18° W 23:10:46 18° W visible
